ROMMA est une association bénévole à but non lucratif. Votre soutien est indispensable : ADHERER à ROMMA ou FAIRE un DON

Granges-lès-Beaumont - (26, Drôme)

Drôme des Collines (155 m)   Longitude: 04°58'E   Latitude: 45°03'N Station partenaire n°123
 

Détail journalier du     <<     >>

Température Precipitation Humidité Pression Vent Dir Rafale Dir. rafale Ensol.
Heure (°C) (mm) (%) (hPa) (km/h) (km/h) (min)
01:00 14.608010132SE6SSE0
02:00 14.908010133SO13S0
03:00 14.208110133SSO13OSO0
04:00 13.908110147SO24SSO0
05:00 13.608310147OSO16O0
06:00 13.008310143ENE19SO0
07:00 12.708410152NE10SSO0
08:00 12.308710153E11E0
09:00 13.108710163E13E0
10:00 13.408610161E10E0
11:00 17.307710162S11S30
12:00 20.104810169SO19SO20
13:00 20.4050101612NNO26ONO10
14:00 19.1048101612N26ONO10
15:00 20.10.24810169NNE27NO40
16:00 14.9380101814NNE40ONO0
17:00 13.70.277101915N34NNE10
18:00 13.50.277102012N23NNO0
19:00 12.80.279102010NNE19NE0
20:00 13.208310201---8NE0
21:00 11.808110217NNE13NO0
22:00 10.608310227N13N0
23:00 10.608410227N16N0
minuit 9.21.487102316N44ONO0

Graphique du 11-05-2019

 

Serveur OMMA